Location: Observatorio del Centro Ecologico de Sonora
(29.0667°N, 110.9333°W)
Time: 13:01:07

ISS - Visible Passes

Search period start: 24 October 2016 00:00
Search period end: 03 November 2016 00:00
Orbit: 400 x 409 km, 51.6° (Epoch: 25 October)

Date Brightness Start Highest point End Pass type
(mag) Time Alt. Az. Time Alt. Az. Time Alt. Az.
28 Oct 0.4 05:57:06 10° SE 05:57:47 10° SE 05:58:28 10° ESE visible
30 Oct -1.3 05:46:13 10° SSW 05:49:09 31° SE 05:52:05 10° ENE visible
31 Oct -0.2 04:55:05 10° SSE 04:56:52 14° SE 04:58:40 10° E visible
01 Nov -3.5 05:37:46 13° SW 05:40:36 75° NW 05:43:51 10° NE visible
02 Nov -1.8 04:48:48 37° E 04:48:48 37° E 04:51:18 10° ENE visible
